Dewpoint
36 36 36 37 38 38 38 39 41 41 43 43 45 44 42 42 41 39 40 41 44 46
36 36 35 35 37 38 37 38 39 41 41 42 43 43 41 40 39 38 38 40 42 44
35 36 36 35 34 36 36 36 38 40 39 39 42 43 41 39 38 37 36 38 40 43
34 35 36 34 34 35 36 35 36 39 38 36 40 42 40 38 37 36 35 36 38 40
34 35 34 34 33 35 34 35 36 38 37 35 37 41 40 36 35 35 33 34 37 39
33 34 34 33 33 34 34 34 35 37 37 36 36 38 38 35 34 34 34 34 36 37
32 33 33 33 34 33 33 34 34 36 37 37 36 37 37 34 33 34 33 34 35 35
33 34 34 34 34 33 32 33 34 35 35 36 36 37 35 33 32 33 33 33 32 34
34 34 34 34 34 33 31 32 33 34 33 33 35 36 35 33 32 33 32 32 31 31
33 34 34 34 34 32 29 30 31 33 32 32 34 35 33 33 32 32 32 31 30 30
32 33 33 34 33 31 30 29 30 32 31 31 33 34 33 33 32 30 30 30 29 29
31 29 31 32 32 31 29 30 30 31 30 30 32 33 32 33 31 30 29 29 29 30
37 36 32 32 32 31 29 28 30 30 30 31 30 32 31 32 30 29 29 29 30 30
35 35 34 32 34 31 30 31 30 30 32 31 31 31 31 31 30 29 28 28 28 29
Wind_Speed
2 2 2 3 5 9 11 11 11 13 12 12 11 12 12 12 12 15 14 15 15 14
4 3 1 2 2 4 8 10 11 10 11 12 11 11 12 12 13 14 14 14 15 14
6 6 5 3 3 4 6 8 10 10 10 12 11 10 11 12 12 14 14 13 15 15
8 9 7 6 5 5 5 6 9 9 9 10 10 8 8 11 12 14 15 14 15 16
11 11 10 9 8 6 7 6 6 7 8 9 9 7 7 10 12 14 16 15 14 15
16 14 14 12 11 9 8 8 7 6 8 8 8 7 2 4 7 9 12 14 13 12
21 20 19 16 14 13 11 10 8 8 8 9 9 6 3 4 6 7 9 11 12 10
23 21 20 18 18 16 14 13 11 10 9 9 8 8 5 3 5 7 9 10 9 9
20 21 22 22 22 19 18 16 13 13 10 9 9 10 9 6 5 7 8 10 10 11
22 23 24 24 21 22 23 19 18 15 12 13 11 14 12 10 7 8 9 9 10 10
21 22 24 24 25 24 19 22 20 19 17 14 13 16 15 14 10 8 9 9 10 10
26 26 26 25 25 25 21 20 18 15 18 16 15 18 18 15 12 11 12 10 9 10
25 26 27 26 27 25 20 22 17 19 18 17 17 18 20 19 14 14 13 10 10 11
24 25 25 27 24 21 19 11 12 10 12 18 18 17 20 22 17 17 15 13 12 12
Wind_Direction
166 110 57 10 352 348 344 344 348 358 357 359 9 14 17 10 2 352 345 342 341 332
211 209 235 323 330 332 334 337 346 354 357 352 357 8 11 10 3 356 348 339 341 335
223 229 235 267 310 316 326 335 342 349 355 355 350 355 1 1 358 1 353 346 345 349
234 236 240 256 276 284 298 322 332 334 340 350 345 343 350 359 357 359 354 352 349 346
241 241 245 253 258 260 275 291 304 309 315 335 340 336 349 354 353 355 354 347 351 352
243 244 247 248 246 242 251 270 283 278 291 308 319 325 315 337 342 347 347 345 344 351
244 242 244 247 244 240 240 246 253 250 266 275 291 298 262 311 329 332 336 343 339 345
248 247 246 244 242 238 237 240 240 235 249 257 270 266 233 266 308 303 315 327 336 324
264 258 252 247 243 231 237 237 238 232 239 253 258 232 228 227 273 276 289 302 311 317
273 268 260 251 241 235 230 228 233 230 232 239 242 225 228 230 242 260 272 281 297 310
299 286 276 266 250 238 230 226 228 228 230 234 232 221 225 226 229 248 259 266 282 287
318 304 292 280 261 242 232 226 227 224 227 226 230 217 219 220 225 241 250 260 270 280
321 316 304 289 274 255 231 222 220 228 230 232 230 221 218 215 224 241 248 253 256 251
330 330 327 315 291 261 237 235 244 249 265 250 238 226 223 220 219 234 247 247 254 246